Location: Lane
(33.5226°N, 79.8788°W)
Time: 16:08:16
(UTC+00:00)

Transit 2A - Pass Details

Date: 01 October 2022
Orbit: 598 x 959 km, 66.7° (Epoch: 06 December)

Event Time Altitude Azimuth Distance (km) Brightness Sun altitude
Rises 13:47:18 0° 335° (NNW) 2,999 8.7 29.9°
Reaches altitude 10° 13:49:31 10° 337° (NNW) 2,129 8.0 30.3°
Maximum altitude 13:54:21 78° 64° (ENE) 752 6.7 31.1°
Drops below altitude 10° 13:59:43 10° 151° (SSE) 2,352 9.6 32.1°
Sets 14:02:16 0° 152° (SSE) 3,339 10.1 32.6°
